Location: Alfortville
(48.8058°N, 2.4204°E)
Time: 13:19:26
(UTC+00:00)

Meteor 1-19 Rocket - Pass Details

Date: 16 December 2023
Orbit: 806 x 928 km, 81.2° (Epoch: 01 March)

Event Time Altitude Azimuth Distance (km) Brightness Sun altitude
Rises 20:12:02 0° 236° (WSW) 3,543 7.9 -41.1°
Reaches altitude 10° 20:15:09 10° 252° (WSW) 2,618 7.3 -41.6°
Maximum altitude 20:19:34 21° 300° (WNW) 1,963 6.5 -42.3°
Enters shadow 20:20:20 20° 311° (NW) 1,989 6.5 -42.5°
